Weather History for Ingleside, TX

Change the Weather History Date:

Thursday, January 9, 2014

  Actual Average Record
Temperature  
Mean Temperature 64 °F -  
Max Temperature 68 °F - - ()
Min Temperature 61 °F - - ()
Growing Degree Days 14 (Base 50)    
Moisture  
Dew Point 64 °F    
Average Humidity 99    
Maximum Humidity 100    
Minimum Humidity 98    
Precipitation  
Precipitation 0.15 in - - ()
Sea Level Pressure  
Sea Level Pressure 30.09 in    
Wind  
Wind Speed 6 mph (South)    
Max Wind Speed 13 mph    
Max Gust Speed 17 mph    
Visibility 6 miles    
Events Rain    
T = Trace of Precipitation, MM = Missing Value Source: NWS Daily Summary

Daily Weather History Graph

Daily Weather History Graph

Search for Another Location

Airport:

Trip Planner

Search our weather history database for the weather conditions in past years. The results will help you decide how hot, cold, wet, or windy it might be!

Date:

Astronomy

Jan. 09, 2014 Rise Set
Actual Time 7:21 AM CST 5:50 PM CST
Civil Twilight 6:55 AM CST 6:16 PM CST
Nautical Twilight 6:26 AM CST 6:45 PM CST
Astronomical Twilight 5:58 AM CST 7:13 PM CST
Moon 1:07 PM CST (1/9) 1:42 AM CST (1/9)
Length of Visible Light 11h 20m
Length of Day
10h 29m
Waxing Gibbous, 66% of the Moon is Illuminated
Jan 9
Waxing Gibbous
Jan 15
Full
Jan 23
Last Quarter
Jan 30
New
Feb 6
First Quarter

Hourly Weather History & Observations

Time (CST) Temp. Dew Point Humidity Pressure Visibility Wind Dir Wind Speed Gust Speed Precip Events Conditions
12:15 AM 61.3 °F 61.3 °F 100% 30.12 in 5.0 mi South 4.6 mph - N/A Rain Rain
12:35 AM 61.5 °F 61.3 °F 99% 30.12 in 7.0 mi SSW 4.6 mph - 0.01 in   Overcast
12:55 AM 61.7 °F 61.5 °F 99% 30.11 in 7.0 mi SSW 5.8 mph - 0.01 in   Overcast
1:15 AM 61.9 °F 61.7 °F 99% 30.11 in 5.0 mi SSW 5.8 mph - N/A   Overcast
1:35 AM 62.1 °F 61.9 °F 99% 30.10 in 4.0 mi SSW 8.1 mph - N/A Rain Rain
1:55 AM 62.2 °F 62.1 °F 99% 30.10 in 7.0 mi South 8.1 mph - N/A   Light Drizzle
2:15 AM 62.4 °F 62.1 °F 99% 30.09 in 7.0 mi SSW 9.2 mph - N/A   Overcast
2:35 AM 62.6 °F 62.6 °F 100% 30.09 in 10.0 mi South 6.9 mph - N/A   Overcast
2:55 AM 62.8 °F 62.6 °F 99% 30.10 in 10.0 mi SSW 6.9 mph - N/A   Overcast
3:15 AM 62.8 °F 62.6 °F 99% 30.10 in 5.0 mi SSW 4.6 mph - N/A   Overcast
3:35 AM 62.6 °F 62.6 °F 100% 30.10 in 3.0 mi SSW 8.1 mph - N/A   Heavy Drizzle
3:55 AM 62.6 °F 62.6 °F 100% 30.10 in 4.0 mi SSW 5.8 mph - 0.01 in   Light Drizzle
4:15 AM 62.6 °F 62.4 °F 99% 30.10 in 4.0 mi SW 6.9 mph - 0.01 in   Drizzle
4:35 AM 63.1 °F 62.8 °F 99% 30.10 in 5.0 mi SSW 4.6 mph - 0.02 in   Light Drizzle
4:55 AM 63.1 °F 63.0 °F 99% 30.10 in 5.0 mi South 5.8 mph - 0.02 in Rain Rain
5:15 AM 63.1 °F 63.0 °F 99% 30.10 in 4.0 mi SSW 4.6 mph - 0.02 in   Drizzle
5:35 AM 63.0 °F 62.8 °F 99% 30.11 in 4.0 mi South 3.5 mph - 0.02 in   Drizzle
5:55 AM 63.0 °F 62.8 °F 99% 30.11 in 5.0 mi Calm Calm - 0.02 in   Overcast
6:15 AM 63.0 °F 62.8 °F 99% 30.11 in 5.0 mi Calm Calm - 0.01 in   Overcast
6:35 AM 62.8 °F 62.6 °F 99% 30.12 in 3.0 mi Calm Calm - 0.01 in   Drizzle
6:55 AM 62.8 °F 62.6 °F 99% 30.12 in 4.0 mi SSE 3.5 mph - 0.01 in   Overcast
7:15 AM 62.8 °F 62.6 °F 99% 30.12 in 2.5 mi SSE 3.5 mph - N/A   Drizzle
7:35 AM 63.0 °F 62.8 °F 99% 30.13 in 2.5 mi Calm Calm - N/A Rain Rain
7:55 AM 63.0 °F 62.8 °F 99% 30.14 in 2.0 mi Calm Calm - 0.01 in   Drizzle
8:15 AM 63.1 °F 63.0 °F 99% 30.15 in 1.5 mi Calm Calm - 0.01 in   Drizzle
8:35 AM 63.3 °F 63.0 °F 99% 30.15 in 1.8 mi Calm Calm - 0.02 in   Overcast
8:55 AM 63.5 °F 63.5 °F 100% 30.15 in 1.8 mi SE 3.5 mph - 0.03 in   Drizzle
9:15 AM 63.7 °F 63.5 °F 99% 30.16 in 1.8 mi North - - 0.01 in   Heavy Drizzle
9:35 AM 63.9 °F 63.7 °F 99% 30.16 in 2.5 mi North - - 0.01 in Rain Rain
9:55 AM 64.4 °F 64.0 °F 99% 30.16 in 3.0 mi SSE 4.6 mph - 0.01 in   Light Drizzle
10:15 AM 64.4 °F 64.2 °F 99% 30.16 in 3.0 mi SE 4.6 mph - 0.01 in   Light Drizzle
10:35 AM 64.4 °F 64.4 °F 100% 30.16 in 2.5 mi SSE 3.5 mph - 0.01 in Rain Rain
10:55 AM 64.9 °F 64.8 °F 99% 30.15 in 3.0 mi SSE 4.6 mph - 0.01 in Rain Light Rain
11:15 AM 65.3 °F 64.8 °F 98% 30.15 in 5.0 mi SE 3.5 mph - N/A Rain Rain
11:35 AM 65.5 °F 65.3 °F 99% 30.14 in 7.0 mi SSE 4.6 mph - N/A   Overcast
11:55 AM 66.2 °F 65.8 °F 99% 30.13 in 2.0 mi South 8.1 mph - 0.01 in   Drizzle
12:15 PM 66.7 °F 66.4 °F 99% 30.12 in 3.0 mi South 10.4 mph - N/A Rain Rain
12:35 PM 66.9 °F 66.6 °F 99% 30.10 in 3.0 mi South 10.4 mph 16.1 mph 0.01 in   Drizzle
12:55 PM 67.5 °F 66.9 °F 98% 30.08 in 10.0 mi South 8.1 mph - 0.01 in   Overcast
1:15 PM 68.4 °F 67.8 °F 98% 30.07 in 10.0 mi South 11.5 mph - N/A   Overcast
1:35 PM 67.8 °F 67.5 °F 99% 30.06 in 4.0 mi South 10.4 mph 16.1 mph N/A Rain Rain
1:55 PM 67.3 °F 67.1 °F 99% 30.06 in 5.0 mi South 10.4 mph 17.3 mph N/A   Overcast
2:35 PM 66.7 °F 66.2 °F 98% 30.04 in 10.0 mi SSE 12.7 mph - N/A   Overcast
2:55 PM 66.6 °F 66.2 °F 99% 30.04 in 10.0 mi South 9.2 mph - N/A   Overcast
3:35 PM 66.7 °F 66.2 °F 98% 30.04 in 10.0 mi South 9.2 mph 16.1 mph N/A   Overcast
3:55 PM 66.9 °F 66.2 °F 98% 30.04 in 10.0 mi SSE 8.1 mph - N/A   Overcast
4:15 PM 66.7 °F 66.2 °F 98% 30.04 in 10.0 mi South 9.2 mph - N/A   Overcast
5:15 PM 66.2 °F 65.5 °F 98% 30.04 in 7.0 mi SE 6.9 mph - N/A   Overcast
5:35 PM 65.8 °F 65.3 °F 98% 30.05 in 7.0 mi SSE 4.6 mph - N/A   Overcast
5:55 PM 65.5 °F 64.9 °F 98% 30.05 in 7.0 mi SSE 4.6 mph - N/A   Overcast
6:15 PM 65.1 °F 64.4 °F 98% 30.05 in 5.0 mi SE 5.8 mph - N/A   Overcast
6:35 PM 65.1 °F 64.6 °F 98% 30.05 in 7.0 mi SSE 4.6 mph - N/A   Overcast
6:55 PM 65.3 °F 64.8 °F 98% 30.05 in 7.0 mi SSE 6.9 mph - N/A Rain Light Rain
7:15 PM 65.7 °F 65.3 °F 99% 30.05 in 10.0 mi SSE 9.2 mph - N/A   Overcast
7:35 PM 65.7 °F 65.3 °F 99% 30.06 in 5.0 mi SSE 9.2 mph - N/A   Overcast
7:55 PM 65.3 °F 64.8 °F 98% 30.06 in 7.0 mi SSE 6.9 mph - N/A   Overcast
8:15 PM 65.1 °F 64.6 °F 98% 30.07 in 7.0 mi South 6.9 mph - N/A   Overcast
8:35 PM 65.1 °F 64.6 °F 98% 30.07 in 5.0 mi South 9.2 mph - N/A Rain Light Rain
8:55 PM 65.3 °F 64.8 °F 98% 30.06 in 7.0 mi SSE 9.2 mph - N/A   Overcast
9:15 PM 65.1 °F 64.6 °F 98% 30.06 in 7.0 mi SSE 9.2 mph - N/A   Overcast
9:35 PM 64.8 °F 64.4 °F 99% 30.06 in 10.0 mi SSE 6.9 mph - N/A   Overcast
9:55 PM 64.6 °F 64.2 °F 99% 30.06 in 7.0 mi South 8.1 mph - N/A   Overcast
10:15 PM 64.4 °F 63.7 °F 98% 30.05 in 7.0 mi SSE 6.9 mph - N/A   Overcast
10:35 PM 64.2 °F 63.7 °F 98% 30.05 in 7.0 mi SSE 4.6 mph - N/A   Overcast
10:55 PM 64.2 °F 63.9 °F 99% 30.04 in 5.0 mi SE 4.6 mph - N/A   Overcast
11:15 PM 64.4 °F 63.9 °F 98% 30.03 in 5.0 mi SE 5.8 mph - N/A   Overcast
11:35 PM 64.4 °F 64.0 °F 99% 30.03 in 4.0 mi ESE 5.8 mph - N/A   Overcast
11:55 PM 64.6 °F 64.2 °F 99% 30.02 in 3.0 mi SE 4.6 mph - N/A   Overcast